Location: Cueva de Ratón
(10.1013°N, 67.6606°W)
Time: 01:22:31
(UTC+00:00)

Cosmos 1766 Rocket - Pass Details

Date: 02 December 2023
Orbit: 603 x 628 km, 82.5° (Epoch: 04 March)

Event Time Altitude Azimuth Distance (km) Brightness Sun altitude
Exits shadow 23:57:10 39° 180° (S) 914 4.5 -26.1°
Drops below altitude 10° 23:59:53 10° 178° (S) 1,942 6.3 -26.8°
Sets 00:02:05 0° 177° (S) 2,845 7.2 -27.3°
